CCA1884 ZSPD-ZBAA

Flight info

Callsign CCA1884
Flight time 1h 40m
Altitude 36100
Route POMOK G330 PIMOL A593 DALIM W157 AVBOX
Aircraft B77W/H-SDE1E2E3FGHIJ2J3J4J5M1RWXY/LB1D1

Departure

Time 2026-05-07 09:52
Airport Shanghai Pudong International Airport (ZSPD)

Arrival

Time 2026-05-07 11:32
Airport Beijing Capital International Airport (ZBAA)
Time Latitude Longitude Altitude Speed Heading
2026-05-07 09:31 31.14051 121.78428 27 ft 0 kts 252°
2026-05-07 09:32 31.14053 121.78436 28 ft 2 kts 252°
2026-05-07 09:33 31.14058 121.78452 28 ft 2 kts 252°
2026-05-07 09:33 31.14062 121.78469 28 ft 2 kts 252°
2026-05-07 09:33 31.14067 121.78486 28 ft 2 kts 252°
2026-05-07 09:33 31.14072 121.78503 28 ft 2 kts 252°
2026-05-07 09:34 31.14076 121.78519 28 ft 2 kts 241°
2026-05-07 09:34 31.14086 121.78532 28 ft 2 kts 211°
2026-05-07 09:34 31.14100 121.78538 28 ft 2 kts 185°
2026-05-07 09:34 31.14115 121.78537 28 ft 2 kts 160°
2026-05-07 09:35 31.14128 121.78530 28 ft 2 kts 159°
2026-05-07 09:35 31.14140 121.78526 28 ft 0 kts 161°
2026-05-07 09:35 31.14141 121.78525 28 ft 0 kts 162°
2026-05-07 09:37 31.14125 121.78531 27 ft 6 kts 163°
2026-05-07 09:37 31.14074 121.78549 27 ft 7 kts 162°
2026-05-07 09:37 31.14022 121.78567 27 ft 7 kts 162°
2026-05-07 09:37 31.13979 121.78584 27 ft 4 kts 163°
2026-05-07 09:38 31.13951 121.78594 27 ft 6 kts 161°
2026-05-07 09:38 31.13900 121.78614 28 ft 7 kts 161°
2026-05-07 09:38 31.13849 121.78633 27 ft 7 kts 161°
2026-05-07 09:38 31.13798 121.78654 28 ft 7 kts 161°
2026-05-07 09:39 31.13746 121.78674 28 ft 7 kts 162°
2026-05-07 09:39 31.13695 121.78693 28 ft 7 kts 161°
2026-05-07 09:39 31.13643 121.78713 28 ft 7 kts 161°
2026-05-07 09:39 31.13592 121.78733 27 ft 7 kts 161°
2026-05-07 09:40 31.13542 121.78752 27 ft 6 kts 161°
2026-05-07 09:40 31.13516 121.78762 27 ft 4 kts 162°
2026-05-07 09:40 31.13471 121.78779 28 ft 7 kts 162°
2026-05-07 09:40 31.13419 121.78798 28 ft 7 kts 162°
2026-05-07 09:41 31.13367 121.78816 27 ft 7 kts 162°
2026-05-07 09:41 31.13315 121.78835 28 ft 7 kts 162°
2026-05-07 09:41 31.13263 121.78854 28 ft 7 kts 162°
2026-05-07 09:41 31.13212 121.78873 27 ft 7 kts 162°
2026-05-07 09:42 31.13160 121.78893 27 ft 7 kts 162°
2026-05-07 09:42 31.13108 121.78913 28 ft 7 kts 162°
2026-05-07 09:42 31.13057 121.78932 27 ft 7 kts 162°
2026-05-07 09:42 31.13005 121.78952 27 ft 7 kts 162°
2026-05-07 09:43 31.12954 121.78972 28 ft 7 kts 161°
2026-05-07 09:43 31.12902 121.78992 28 ft 7 kts 162°
2026-05-07 09:43 31.12851 121.79012 27 ft 7 kts 162°
2026-05-07 09:43 31.12799 121.79031 28 ft 7 kts 161°
2026-05-07 09:44 31.12748 121.79051 28 ft 7 kts 161°
2026-05-07 09:44 31.12696 121.79071 27 ft 7 kts 161°
2026-05-07 09:44 31.12645 121.79091 28 ft 7 kts 163°
2026-05-07 09:44 31.12592 121.79109 28 ft 7 kts 163°
2026-05-07 09:45 31.12544 121.79126 28 ft 5 kts 163°
2026-05-07 09:45 31.12516 121.79144 28 ft 4 kts 132°
2026-05-07 09:45 31.12505 121.79178 28 ft 4 kts 97°
2026-05-07 09:45 31.12512 121.79217 28 ft 7 kts 68°
2026-05-07 09:46 31.12529 121.79276 28 ft 7 kts 71°
2026-05-07 09:46 31.12546 121.79336 28 ft 7 kts 71°
2026-05-07 09:46 31.12563 121.79396 28 ft 7 kts 71°
2026-05-07 09:46 31.12581 121.79456 28 ft 7 kts 71°
2026-05-07 09:47 31.12598 121.79516 28 ft 7 kts 71°
2026-05-07 09:47 31.12615 121.79575 28 ft 7 kts 71°
2026-05-07 09:47 31.12632 121.79636 28 ft 7 kts 71°
2026-05-07 09:47 31.12649 121.79695 28 ft 7 kts 71°
2026-05-07 09:48 31.12662 121.79739 28 ft 3 kts 71°
2026-05-07 09:48 31.12664 121.79747 28 ft 0 kts 71°
2026-05-07 09:50 31.12664 121.79748 27 ft 0 kts 71°
2026-05-07 09:50 31.12669 121.79765 27 ft 4 kts 73°
2026-05-07 09:50 31.12685 121.79826 28 ft 10 kts 72°
2026-05-07 09:50 31.12727 121.79877 28 ft 6 kts 11°
2026-05-07 09:51 31.12778 121.79864 27 ft 13 kts 344°
2026-05-07 09:51 31.13079 121.79752 28 ft 81 kts 342°
2026-05-07 09:51 31.13833 121.79463 43 ft 143 kts 345°
2026-05-07 09:51 31.14802 121.79080 578 ft 152 kts 345°
2026-05-07 09:52 31.15851 121.78681 1221 ft 165 kts 347°
2026-05-07 09:52 31.17021 121.78331 1862 ft 183 kts 343°
2026-05-07 09:52 31.17882 121.77940 2314 ft 197 kts 340°
2026-05-07 09:52 31.19130 121.77385 2887 ft 218 kts 341°
2026-05-07 09:53 31.20634 121.76766 3019 ft 242 kts 342°
2026-05-07 09:53 31.22291 121.76095 3366 ft 258 kts 341°
2026-05-07 09:53 31.23970 121.75414 4586 ft 260 kts 341°
2026-05-07 09:53 31.25668 121.74723 5745 ft 263 kts 340°
2026-05-07 09:54 31.27406 121.74016 6762 ft 270 kts 339°
2026-05-07 09:54 31.29173 121.73297 7829 ft 274 kts 339°
2026-05-07 09:54 31.30971 121.72566 8905 ft 277 kts 338°
2026-05-07 09:54 31.32773 121.71832 9939 ft 281 kts 337°
2026-05-07 09:55 31.34670 121.71057 10748 ft 294 kts 337°
2026-05-07 09:55 31.36672 121.70270 11397 ft 312 kts 338°
2026-05-07 09:55 31.38796 121.69466 12109 ft 329 kts 338°
2026-05-07 09:55 31.41014 121.68625 12806 ft 346 kts 338°
2026-05-07 09:56 31.43382 121.67721 13514 ft 361 kts 338°
2026-05-07 09:56 31.45834 121.66782 14229 ft 378 kts 338°
2026-05-07 09:56 31.48382 121.65814 14917 ft 393 kts 338°
2026-05-07 09:56 31.51035 121.64807 15669 ft 404 kts 338°
2026-05-07 09:57 31.53623 121.63554 16580 ft 404 kts 328°
2026-05-07 09:57 31.55998 121.61789 17507 ft 403 kts 319°
2026-05-07 09:57 31.58078 121.59618 18350 ft 405 kts 312°
2026-05-07 09:57 31.60081 121.57263 19234 ft 409 kts 311°
2026-05-07 09:58 31.62085 121.54890 20077 ft 413 kts 311°
2026-05-07 09:58 31.64107 121.52494 20904 ft 417 kts 311°
2026-05-07 09:58 31.66142 121.50082 21690 ft 421 kts 311°
2026-05-07 09:58 31.68217 121.47621 22465 ft 425 kts 311°
2026-05-07 09:59 31.70287 121.45163 23197 ft 430 kts 311°
2026-05-07 09:59 31.72413 121.42638 23902 ft 435 kts 311°
2026-05-07 09:59 31.74539 121.40112 24624 ft 440 kts 311°
2026-05-07 09:59 31.76716 121.37524 25435 ft 443 kts 310°
2026-05-07 10:00 31.78882 121.34947 26197 ft 447 kts 310°
2026-05-07 10:00 31.81082 121.32328 26974 ft 451 kts 310°
2026-05-07 10:00 31.83280 121.29710 27691 ft 455 kts 310°
2026-05-07 10:00 31.85526 121.27030 28391 ft 460 kts 309°
2026-05-07 10:01 31.87778 121.24342 29127 ft 464 kts 309°
2026-05-07 10:01 31.90065 121.21613 29929 ft 466 kts 309°
2026-05-07 10:01 31.92307 121.18935 30888 ft 463 kts 310°
2026-05-07 10:01 31.94554 121.16251 31984 ft 457 kts 309°
2026-05-07 10:02 31.96786 121.13583 32964 ft 452 kts 309°
2026-05-07 10:02 31.98977 121.10959 33746 ft 451 kts 309°
2026-05-07 10:02 32.01186 121.08312 34483 ft 450 kts 309°
2026-05-07 10:02 32.03370 121.05693 35349 ft 445 kts 309°
2026-05-07 10:03 32.05529 121.03103 36001 ft 443 kts 309°
2026-05-07 10:03 32.09303 120.97582 36090 ft 433 kts 297°
2026-05-07 10:04 32.11702 120.91175 36093 ft 426 kts 286°
2026-05-07 10:04 32.13549 120.84561 36099 ft 425 kts 286°
2026-05-07 10:05 32.15402 120.77886 36131 ft 426 kts 286°
2026-05-07 10:05 32.16280 120.74554 36759 ft 419 kts 282°
2026-05-07 10:05 32.16803 120.71279 37721 ft 405 kts 276°
2026-05-07 10:05 32.17107 120.67983 38080 ft 405 kts 275°
2026-05-07 10:06 32.17390 120.64668 38317 ft 405 kts 275°
2026-05-07 10:06 32.17668 120.61371 38947 ft 397 kts 275°
2026-05-07 10:06 32.17936 120.58186 39576 ft 388 kts 276°
2026-05-07 10:06 32.18201 120.55022 40068 ft 382 kts 276°
2026-05-07 10:07 32.18462 120.51892 40088 ft 385 kts 276°
2026-05-07 10:07 32.18989 120.45530 40104 ft 392 kts 276°
2026-05-07 10:08 32.19519 120.39084 40099 ft 398 kts 276°
2026-05-07 10:08 32.20058 120.32491 40120 ft 405 kts 275°
2026-05-07 10:09 32.20604 120.25795 40120 ft 413 kts 275°
2026-05-07 10:09 32.21164 120.18963 40119 ft 421 kts 275°
2026-05-07 10:10 32.21728 120.12028 40110 ft 427 kts 276°
2026-05-07 10:10 32.22293 120.05028 40107 ft 430 kts 275°
2026-05-07 10:11 32.22858 119.97983 40101 ft 428 kts 275°
2026-05-07 10:11 32.23419 119.90936 40110 ft 429 kts 275°
2026-05-07 10:12 32.24247 119.83946 40109 ft 430 kts 283°
2026-05-07 10:12 32.26485 119.77371 40109 ft 435 kts 296°
2026-05-07 10:13 32.30183 119.71639 40108 ft 445 kts 310°
2026-05-07 10:13 32.35065 119.67070 40114 ft 451 kts 318°
2026-05-07 10:14 32.40231 119.62736 40124 ft 452 kts 318°
2026-05-07 10:14 32.45336 119.58411 40115 ft 452 kts 318°
2026-05-07 10:15 32.50438 119.54044 40128 ft 452 kts 317°
2026-05-07 10:15 32.55544 119.49641 40130 ft 452 kts 318°
2026-05-07 10:16 32.60655 119.45223 40135 ft 453 kts 317°
2026-05-07 10:16 32.65771 119.40794 40137 ft 451 kts 318°
2026-05-07 10:17 32.70847 119.36391 40132 ft 452 kts 317°
2026-05-07 10:17 32.75947 119.31960 40162 ft 452 kts 317°
2026-05-07 10:18 32.81029 119.27538 40157 ft 451 kts 317°
2026-05-07 10:18 32.86110 119.23112 40161 ft 450 kts 317°
2026-05-07 10:19 32.91160 119.18705 40162 ft 450 kts 317°
2026-05-07 10:19 32.96212 119.14305 40154 ft 448 kts 317°
2026-05-07 10:20 33.01254 119.09969 40164 ft 449 kts 317°
2026-05-07 10:20 33.06358 119.05572 40145 ft 451 kts 317°
2026-05-07 10:21 33.11480 119.01154 40157 ft 451 kts 317°
2026-05-07 10:21 33.16553 118.96768 40146 ft 450 kts 317°
2026-05-07 10:22 33.21631 118.92366 40163 ft 448 kts 317°
2026-05-07 10:22 33.26696 118.87942 40177 ft 447 kts 317°
2026-05-07 10:23 33.31726 118.83553 40160 ft 448 kts 317°
2026-05-07 10:23 33.36785 118.79175 40161 ft 446 kts 317°
2026-05-07 10:24 33.41817 118.74812 40173 ft 447 kts 317°
2026-05-07 10:24 33.46867 118.70425 40153 ft 448 kts 317°
2026-05-07 10:25 33.51923 118.66045 40162 ft 446 kts 317°
2026-05-07 10:25 33.56953 118.61684 40150 ft 445 kts 317°
2026-05-07 10:26 33.62027 118.57277 40153 ft 445 kts 317°
2026-05-07 10:26 33.67067 118.52891 40168 ft 444 kts 317°
2026-05-07 10:27 33.72073 118.48530 40135 ft 446 kts 317°
2026-05-07 10:27 33.77124 118.44122 40169 ft 445 kts 317°
2026-05-07 10:28 33.82127 118.39751 40148 ft 445 kts 317°
2026-05-07 10:28 33.87138 118.35364 40142 ft 444 kts 317°
2026-05-07 10:29 33.92155 118.30966 40175 ft 445 kts 317°
2026-05-07 10:29 33.97174 118.26562 40172 ft 443 kts 316°
2026-05-07 10:30 34.04737 118.19974 40153 ft 444 kts 317°
2026-05-07 10:30 34.09760 118.15597 40160 ft 445 kts 317°
2026-05-07 10:31 34.14789 118.11221 40165 ft 442 kts 317°
2026-05-07 10:31 34.19785 118.06864 40159 ft 441 kts 316°
2026-05-07 10:32 34.24776 118.02506 40153 ft 442 kts 317°
2026-05-07 10:32 34.30296 117.98972 40159 ft 458 kts 332°
2026-05-07 10:33 34.36482 117.96705 40178 ft 464 kts 335°
2026-05-07 10:33 34.42678 117.94515 40175 ft 464 kts 334°
2026-05-07 10:34 34.48857 117.92318 40178 ft 461 kts 334°
2026-05-07 10:34 34.55015 117.90118 40183 ft 462 kts 334°
2026-05-07 10:35 34.61203 117.87903 40174 ft 461 kts 334°
2026-05-07 10:35 34.67355 117.85695 40189 ft 460 kts 334°
2026-05-07 10:36 34.73530 117.83473 40187 ft 461 kts 334°
2026-05-07 10:36 34.79711 117.81247 40183 ft 461 kts 334°
2026-05-07 10:37 34.85846 117.79013 40191 ft 461 kts 334°
2026-05-07 10:37 34.91980 117.76771 40196 ft 458 kts 334°
2026-05-07 10:38 34.98139 117.74516 40196 ft 461 kts 334°
2026-05-07 10:38 35.04313 117.72255 40195 ft 459 kts 334°
2026-05-07 10:39 35.10436 117.70010 40196 ft 459 kts 334°
2026-05-07 10:39 35.16583 117.67756 40199 ft 456 kts 333°
2026-05-07 10:40 35.22665 117.65522 40200 ft 455 kts 333°
2026-05-07 10:40 35.28717 117.63295 40206 ft 453 kts 333°
2026-05-07 10:41 35.34745 117.61073 40207 ft 451 kts 333°
2026-05-07 10:41 35.40775 117.58847 40204 ft 452 kts 333°
2026-05-07 10:42 35.46826 117.56609 40210 ft 452 kts 333°
2026-05-07 10:42 35.52853 117.54378 40207 ft 449 kts 333°
2026-05-07 10:43 35.58882 117.52142 40210 ft 449 kts 333°
2026-05-07 10:43 35.64840 117.49931 40207 ft 447 kts 333°
2026-05-07 10:44 35.70804 117.47711 40208 ft 448 kts 333°
2026-05-07 10:44 35.76774 117.45486 40208 ft 445 kts 333°
2026-05-07 10:45 35.82737 117.43259 40208 ft 448 kts 333°
2026-05-07 10:45 35.88719 117.41024 40203 ft 445 kts 333°
2026-05-07 10:46 35.94635 117.38808 40206 ft 446 kts 334°
2026-05-07 10:46 36.00609 117.36570 40203 ft 444 kts 333°
2026-05-07 10:47 36.06560 117.34370 40220 ft 445 kts 333°
2026-05-07 10:47 36.12505 117.32175 40233 ft 444 kts 333°
2026-05-07 10:48 36.18396 117.29995 40227 ft 443 kts 333°
2026-05-07 10:48 36.24342 117.27789 40230 ft 443 kts 333°
2026-05-07 10:49 36.30268 117.25590 40231 ft 443 kts 333°
2026-05-07 10:49 36.36198 117.23384 40229 ft 443 kts 333°
2026-05-07 10:50 36.42051 117.21136 40224 ft 437 kts 329°
2026-05-07 10:50 36.47648 117.18270 40236 ft 435 kts 327°
2026-05-07 10:51 36.53237 117.15361 40229 ft 433 kts 327°
2026-05-07 10:51 36.58786 117.12470 40225 ft 432 kts 327°
2026-05-07 10:52 36.64367 117.09557 40221 ft 433 kts 327°
2026-05-07 10:52 36.69944 117.06646 40217 ft 432 kts 327°
2026-05-07 10:53 36.75547 117.03714 40217 ft 435 kts 327°
2026-05-07 10:53 36.81101 117.00806 40215 ft 433 kts 327°
2026-05-07 10:54 36.86708 116.97863 40216 ft 434 kts 327°
2026-05-07 10:54 36.92284 116.94934 40211 ft 430 kts 327°
2026-05-07 10:55 36.97828 116.92016 40218 ft 432 kts 327°
2026-05-07 10:55 37.03347 116.89108 40175 ft 428 kts 327°
2026-05-07 10:56 37.08865 116.86193 40195 ft 431 kts 327°
2026-05-07 10:56 37.14417 116.83255 40211 ft 434 kts 327°
2026-05-07 10:57 37.19961 116.80320 40201 ft 432 kts 327°
2026-05-07 10:57 37.25809 116.77831 40184 ft 442 kts 333°
2026-05-07 10:58 37.31692 116.75620 40217 ft 444 kts 333°
2026-05-07 10:58 37.37606 116.73392 40229 ft 442 kts 333°
2026-05-07 10:59 37.40561 116.72279 39968 ft 438 kts 333°
2026-05-07 10:59 37.43455 116.71185 39333 ft 438 kts 333°
2026-05-07 10:59 37.46390 116.70070 38637 ft 443 kts 333°
2026-05-07 10:59 37.49328 116.68956 37713 ft 440 kts 333°
2026-05-07 11:00 37.52284 116.67837 36811 ft 437 kts 333°
2026-05-07 11:00 37.55150 116.66749 35933 ft 435 kts 333°
2026-05-07 11:00 37.58054 116.65645 35136 ft 433 kts 332°
2026-05-07 11:00 37.60926 116.64550 34428 ft 434 kts 332°
2026-05-07 11:01 37.63820 116.63448 33712 ft 432 kts 332°
2026-05-07 11:01 37.66689 116.62355 32966 ft 430 kts 332°
2026-05-07 11:01 37.69563 116.61255 32210 ft 437 kts 332°
2026-05-07 11:01 37.72493 116.60131 31440 ft 440 kts 332°
2026-05-07 11:02 37.75406 116.59020 30698 ft 437 kts 333°
2026-05-07 11:02 37.78329 116.57905 29948 ft 433 kts 333°
2026-05-07 11:02 37.81172 116.56819 29218 ft 429 kts 333°
2026-05-07 11:02 37.84030 116.55725 28502 ft 425 kts 334°
2026-05-07 11:03 37.86853 116.54643 27803 ft 420 kts 334°
2026-05-07 11:03 37.89634 116.53577 27089 ft 415 kts 335°
2026-05-07 11:03 37.92355 116.52533 26397 ft 409 kts 336°
2026-05-07 11:03 37.95043 116.51452 25832 ft 400 kts 333°
2026-05-07 11:04 37.97552 116.50037 25704 ft 380 kts 327°
2026-05-07 11:04 37.99812 116.48312 25701 ft 382 kts 321°
2026-05-07 11:04 38.01989 116.46356 25220 ft 388 kts 321°
2026-05-07 11:04 38.04185 116.44360 24689 ft 382 kts 322°
2026-05-07 11:05 38.06334 116.42402 24203 ft 376 kts 322°
2026-05-07 11:05 38.08423 116.40493 23709 ft 371 kts 322°
2026-05-07 11:05 38.10529 116.38565 23200 ft 368 kts 323°
2026-05-07 11:05 38.12616 116.36652 22691 ft 370 kts 323°
2026-05-07 11:06 38.14706 116.34734 22189 ft 368 kts 323°
2026-05-07 11:06 38.16775 116.32833 21709 ft 365 kts 322°
2026-05-07 11:06 38.18835 116.30939 21226 ft 364 kts 323°
2026-05-07 11:06 38.20980 116.29222 20735 ft 366 kts 330°
2026-05-07 11:07 38.23288 116.27895 20238 ft 365 kts 337°
2026-05-07 11:07 38.25729 116.26983 19746 ft 365 kts 344°
2026-05-07 11:07 38.28244 116.26508 19248 ft 367 kts 352°
2026-05-07 11:07 38.30841 116.26483 18750 ft 368 kts 360°
2026-05-07 11:08 38.33403 116.26920 18257 ft 384 kts
2026-05-07 11:08 38.36005 116.27765 17756 ft 391 kts 11°
2026-05-07 11:08 38.38628 116.28699 17253 ft 387 kts 11°
2026-05-07 11:08 38.41198 116.29609 16863 ft 382 kts 11°
2026-05-07 11:09 38.43777 116.30514 16810 ft 385 kts 11°
2026-05-07 11:09 38.46363 116.31416 16808 ft 384 kts 11°
2026-05-07 11:09 38.48969 116.32322 16809 ft 385 kts 11°
2026-05-07 11:09 38.51550 116.33218 16807 ft 385 kts 11°
2026-05-07 11:10 38.54142 116.34117 16805 ft 384 kts 11°
2026-05-07 11:10 38.56735 116.35015 16808 ft 384 kts 11°
2026-05-07 11:10 38.59314 116.35909 16807 ft 384 kts 11°
2026-05-07 11:10 38.61912 116.36809 16804 ft 383 kts 11°
2026-05-07 11:11 38.64483 116.37701 16782 ft 384 kts 11°
2026-05-07 11:11 38.67096 116.38525 16369 ft 384 kts
2026-05-07 11:11 38.69704 116.39246 15866 ft 379 kts
2026-05-07 11:11 38.72253 116.39951 15368 ft 375 kts
2026-05-07 11:12 38.74808 116.40660 14861 ft 371 kts
2026-05-07 11:12 38.77322 116.41362 14359 ft 368 kts
2026-05-07 11:12 38.79805 116.42059 13860 ft 366 kts
2026-05-07 11:12 38.82295 116.42759 13360 ft 365 kts
2026-05-07 11:13 38.84807 116.43469 12854 ft 364 kts
2026-05-07 11:13 38.87264 116.44164 12355 ft 361 kts
2026-05-07 11:13 38.89727 116.44862 11954 ft 357 kts
2026-05-07 11:13 38.92153 116.45549 11898 ft 359 kts
2026-05-07 11:14 38.94604 116.46245 11895 ft 359 kts 10°
2026-05-07 11:14 38.97049 116.46940 11894 ft 359 kts 10°
2026-05-07 11:14 38.99511 116.47640 11893 ft 359 kts
2026-05-07 11:14 39.01967 116.48339 11891 ft 359 kts
2026-05-07 11:15 39.04404 116.49033 11893 ft 360 kts
2026-05-07 11:15 39.06868 116.49736 11894 ft 359 kts
2026-05-07 11:15 39.09291 116.50422 11890 ft 358 kts
2026-05-07 11:15 39.11793 116.50751 11896 ft 357 kts 358°
2026-05-07 11:16 39.14267 116.50526 11901 ft 355 kts 352°
2026-05-07 11:16 39.16718 116.50153 11900 ft 356 kts 352°
2026-05-07 11:16 39.19208 116.49764 11897 ft 356 kts 352°
2026-05-07 11:16 39.21661 116.49382 11893 ft 355 kts 352°
2026-05-07 11:17 39.24131 116.48998 11899 ft 356 kts 352°
2026-05-07 11:17 39.26628 116.48608 11895 ft 356 kts 352°
2026-05-07 11:17 39.29097 116.48224 11904 ft 356 kts 352°
2026-05-07 11:17 39.31546 116.47842 11900 ft 355 kts 352°
2026-05-07 11:18 39.33958 116.47467 11747 ft 338 kts 352°
2026-05-07 11:18 39.36235 116.47113 11628 ft 320 kts 352°
2026-05-07 11:18 39.38370 116.46781 11336 ft 299 kts 352°
2026-05-07 11:18 39.40388 116.46466 11083 ft 281 kts 352°
2026-05-07 11:19 39.42276 116.46171 10937 ft 263 kts 351°
2026-05-07 11:19 39.44035 116.45895 10801 ft 249 kts 351°
2026-05-07 11:19 39.45753 116.45625 10401 ft 248 kts 351°
2026-05-07 11:19 39.47491 116.45618 9902 ft 252 kts
2026-05-07 11:20 39.49114 116.46520 9397 ft 259 kts 28°
2026-05-07 11:20 39.50595 116.47862 9012 ft 257 kts 31°
2026-05-07 11:20 39.52033 116.49233 8601 ft 256 kts 32°
2026-05-07 11:20 39.53464 116.50600 8199 ft 255 kts 32°
2026-05-07 11:21 39.54892 116.51963 7817 ft 254 kts 32°
2026-05-07 11:21 39.56323 116.53327 7409 ft 253 kts 32°
2026-05-07 11:21 39.57725 116.54665 7066 ft 251 kts 32°
2026-05-07 11:21 39.59135 116.56010 6847 ft 249 kts 32°
2026-05-07 11:22 39.60533 116.57345 6650 ft 251 kts 32°
2026-05-07 11:22 39.61948 116.58697 6472 ft 249 kts 32°
2026-05-07 11:22 39.63337 116.60025 6345 ft 248 kts 32°
2026-05-07 11:22 39.64735 116.61361 6189 ft 249 kts 32°
2026-05-07 11:23 39.66157 116.62688 6028 ft 248 kts 26°
2026-05-07 11:23 39.67745 116.63370 5870 ft 242 kts
2026-05-07 11:23 39.69434 116.63303 5773 ft 241 kts 354°
2026-05-07 11:23 39.71090 116.63125 5658 ft 239 kts
2026-05-07 11:24 39.72776 116.63271 5467 ft 234 kts 352°
2026-05-07 11:24 39.74338 116.62940 5373 ft 227 kts 348°
2026-05-07 11:24 39.75914 116.62551 5056 ft 227 kts 348°
2026-05-07 11:24 39.77449 116.62186 4933 ft 219 kts 350°
2026-05-07 11:25 39.78915 116.61919 4897 ft 208 kts 353°
2026-05-07 11:25 39.80339 116.61698 4795 ft 200 kts 351°
2026-05-07 11:25 39.81720 116.61458 4785 ft 199 kts 352°
2026-05-07 11:25 39.83098 116.61238 4703 ft 198 kts 352°
2026-05-07 11:26 39.84445 116.61026 4539 ft 193 kts 352°
2026-05-07 11:26 39.85769 116.60818 4373 ft 187 kts 352°
2026-05-07 11:26 39.87035 116.60619 4224 ft 181 kts 352°
2026-05-07 11:26 39.88285 116.60422 4025 ft 178 kts 352°
2026-05-07 11:27 39.89497 116.60232 3840 ft 175 kts 352°
2026-05-07 11:27 39.90723 116.60039 3558 ft 173 kts 352°
2026-05-07 11:27 39.91882 116.59856 3345 ft 162 kts 353°
2026-05-07 11:27 39.92968 116.59686 3087 ft 155 kts 353°
2026-05-07 11:28 39.94028 116.59518 2792 ft 151 kts 353°
2026-05-07 11:28 39.95063 116.59356 2496 ft 149 kts 353°
2026-05-07 11:28 39.96105 116.59192 2311 ft 150 kts 353°
2026-05-07 11:28 39.97113 116.59033 2129 ft 139 kts 353°
2026-05-07 11:29 39.98039 116.58888 1965 ft 134 kts 353°
2026-05-07 11:29 39.98968 116.58741 1796 ft 132 kts 353°
2026-05-07 11:29 39.99890 116.58595 1623 ft 134 kts 353°
2026-05-07 11:29 40.00824 116.58450 1422 ft 134 kts 353°
2026-05-07 11:30 40.01759 116.58302 1225 ft 135 kts 352°
2026-05-07 11:30 40.02687 116.58147 1035 ft 134 kts 352°
2026-05-07 11:30 40.03644 116.57992 837 ft 136 kts 352°
2026-05-07 11:30 40.04579 116.57851 653 ft 135 kts 352°
2026-05-07 11:31 40.05530 116.57702 480 ft 134 kts 351°
2026-05-07 11:31 40.06475 116.57552 326 ft 136 kts 351°
2026-05-07 11:31 40.07429 116.57405 159 ft 137 kts 351°
2026-05-07 11:31 40.08298 116.57265 132 ft 107 kts 353°
2026-05-07 11:32 40.09081 116.57159 132 ft 25 kts
2026-05-07 11:32 40.09242 116.57203 132 ft 22 kts 20°
2026-05-07 11:32 40.09324 116.57253 132 ft 9 kts 45°
2026-05-07 11:33 40.09334 116.57293 132 ft 0 kts 97°
2026-05-07 11:33 40.09333 116.57300 132 ft 0 kts 102°
2026-05-07 11:33 40.09333 116.57301 132 ft 0 kts 106°
2026-05-07 11:33 40.09332 116.57302 132 ft 0 kts 106°
2026-05-07 11:34 40.09332 116.57303 132 ft 0 kts 106°
2026-05-07 11:34 40.09329 116.57310 132 ft 2 kts 123°
2026-05-07 11:34 40.09292 116.57336 132 ft 12 kts 163°
2026-05-07 11:34 40.09176 116.57359 132 ft 17 kts 172°
2026-05-07 11:35 40.09058 116.57377 132 ft 16 kts 173°
2026-05-07 11:35 40.08942 116.57394 132 ft 16 kts 173°
2026-05-07 11:35 40.08831 116.57412 132 ft 15 kts 173°
2026-05-07 11:35 40.08723 116.57428 132 ft 15 kts 173°
2026-05-07 11:36 40.08617 116.57445 132 ft 15 kts 173°
2026-05-07 11:36 40.08514 116.57461 132 ft 14 kts 172°
2026-05-07 11:36 40.08414 116.57478 132 ft 14 kts 173°
2026-05-07 11:36 40.08362 116.57485 132 ft 0 kts 173°
2026-05-07 11:37 40.08361 116.57486 132 ft 0 kts 173°
2026-05-07 11:37 40.08359 116.57486 132 ft 0 kts 173°
2026-05-07 11:38 40.08358 116.57486 132 ft 0 kts 173°
2026-05-07 11:38 40.08357 116.57487 132 ft 0 kts 173°
2026-05-07 11:38 40.08352 116.57488 132 ft 1 kts 173°
2026-05-07 11:38 40.08322 116.57492 132 ft 7 kts 171°
2026-05-07 11:39 40.08293 116.57536 132 ft 6 kts 88°
2026-05-07 11:39 40.08299 116.57600 132 ft 7 kts 82°
2026-05-07 11:39 40.08306 116.57673 132 ft 10 kts 83°
2026-05-07 11:39 40.08316 116.57793 132 ft 16 kts 83°
2026-05-07 11:40 40.08332 116.57967 132 ft 22 kts 83°
2026-05-07 11:40 40.08350 116.58163 132 ft 21 kts 83°
2026-05-07 11:40 40.08368 116.58351 132 ft 20 kts 83°
2026-05-07 11:40 40.08384 116.58533 132 ft 21 kts 83°
2026-05-07 11:41 40.08404 116.58744 132 ft 23 kts 82°
2026-05-07 11:41 40.08422 116.58944 132 ft 14 kts 83°
2026-05-07 11:41 40.08429 116.59026 132 ft 4 kts 83°
2026-05-07 11:41 40.08430 116.59032 132 ft 0 kts 83°
2026-05-07 11:42 40.08430 116.59035 132 ft 0 kts 83°
2026-05-07 11:42 40.08431 116.59036 132 ft 0 kts 83°
2026-05-07 11:42 40.08434 116.59075 132 ft 8 kts 83°
2026-05-07 11:42 40.08444 116.59185 132 ft 15 kts 83°
2026-05-07 11:43 40.08458 116.59330 132 ft 16 kts 83°
2026-05-07 11:43 40.08471 116.59472 132 ft 15 kts 82°
2026-05-07 11:43 40.08483 116.59610 132 ft 15 kts 83°
2026-05-07 11:43 40.08495 116.59744 132 ft 14 kts 82°
2026-05-07 11:44 40.08505 116.59856 132 ft 8 kts 93°
2026-05-07 11:44 40.08465 116.59899 132 ft 7 kts 165°
2026-05-07 11:44 40.08402 116.59911 132 ft 13 kts 173°
2026-05-07 11:44 40.08264 116.59933 132 ft 25 kts 173°
2026-05-07 11:45 40.08069 116.59963 132 ft 27 kts 173°
2026-05-07 11:45 40.07882 116.59992 132 ft 26 kts 173°
2026-05-07 11:45 40.07701 116.60020 132 ft 25 kts 173°
2026-05-07 11:45 40.07531 116.60046 132 ft 24 kts 173°